Terminal Aerodrome Forecast
Issued by NWS Omaha/Valley, NE

Home | Current Version | Previous Version | Text Only | Print | Product List | Glossary On
Versions: 1 2 3 4 5 6 7 8 9 10 11 12 13 14 15 16 17 18 19 20 21 22 23 24 25 26 27 28 29 30 31 32 33 34 35 36 37 38 39 40 41 42 43
000
FTUS43 KOAX 292322
TAFLNK
TAF
KLNK 292322Z 3000/3024 23006KT P6SM OVC015
     FM300200 27005KT P6SM SCT030
     FM300800 31004KT 5SM BR SCT015
      TEMPO 3010/3012 2SM BR OVC012
     FM301500 31008KT P6SM SCT050=

USA.gov is the U.S. government's official web portal to all federal, state and local government web resources and services.